Regional Weather Roundup
Issued by NWS

Home | Current Version | Previous Version | Graphics & Text | Print | Product List | Glossary On
Versions: 1 2 3 4 5 6 7 8 9 10 11 12 13 14 15 16 17 18 19 20 21 22 23 24 25 26 27 28 29 30 31 32 33 34 35 36 37 38 39 40 41 42 43 44 45 46 47 48 49 50
000
ASUS43 KLMK 031810
RWRKY
KENTUCKY REGIONAL WEATHER ROUNDUP
NATIONAL WEATHER SERVICE LOUISVILLE KY
200 PM EDT MON AUG 03 2015

NOTE "FAIR" INDICATES FEW OR NO CLOUDS BELOW 12,000 FEET
WITH NO SIGNIFICANT WEATHER AND/OR OBSTRUCTIONS TO VISIBILITY.

KYZ001>023-026-027-061>063-070>075-031900-
WESTERN AND SOUTH CENTRAL KENTUCKY

CITY           SKY/WX    TMP DP  RH WIND       PRES   REMARKS
PADUCAH        SUNNY     92  73  53 W9        29.91S HX 100
HENDERSON      SUNNY     90  70  51 W9        29.88S HX  95
OWENSBORO      SUNNY     92  74  55 W8        29.89F HX 101
HOPKINSVILLE   SUNNY     90  74  59 W8        29.93S HX  98
BOWLING GREEN  SUNNY     90  70  51 VRB6G17   29.92F HX  95
GLASGOW        SUNNY    N/A N/A N/A SW7       29.93F
$$

KYZ024-025-028>034-038-045-046-053-031900-
NORTH CENTRAL KENTUCKY

CITY           SKY/WX    TMP DP  RH WIND       PRES   REMARKS
LOUISVILLE/SDF MOSUNNY   87  69  54 VRB6      29.87F HX  91
LOUISVILLE/LOU SUNNY     86  68  54 SW8       29.88F
FORT KNOX      SUNNY     88  71  58 SW8       29.88F HX  94
$$

KYZ035>037-039>044-047>052-055>060-089>105-031900-
NORTHEAST KENTUCKY

CITY           SKY/WX    TMP DP  RH WIND       PRES   REMARKS
LEXINGTON      SUNNY     84  67  56 S17G23    29.91F
COVINGTON      MOSUNNY   81  67  62 SW12G23   29.88F
FRANKFORT      SUNNY     84  66  54 SW10G18   29.89F
$$

KYZ054-064>069-076>088-106>120-031900-
SOUTHEAST KENTUCKY

CITY           SKY/WX    TMP DP  RH WIND       PRES   REMARKS
JACKSON        SUNNY     82  63  52 VRB7      29.97F
LONDON         SUNNY     86  62  44 SW7       29.97F
SOMERSET       SUNNY     82  64  54 S7        29.97F
MIDDLESBORO    SUNNY     85  65  50 S3        29.98F
MONTICELLO     CLEAR     87  69  54 SW8       29.99F HX  91
$$



USA.gov is the U.S. government's official web portal to all federal, state and local government web resources and services.